Weather History for K2WX - September, 2012

Change the Weather History Date:

Sunday, September 30, 2012

  Actual Average Record
Temperature  
Mean Temperature 65 °F 51 °F  
Max Temperature 80 °F 65 °F 86 °F (2005)
Min Temperature 50 °F 38 °F 30 °F (2003)
Degree Days  
Heating Degree Days 0 14  
Month to date heating degree days 124 238  
Since 1 July heating degree days 159 291  
Cooling Degree Days 0 0  
Month to date cooling degree days 56 41  
Year to date cooling degree days 853 512  
Growing Degree Days 16 (Base 50)    
Moisture  
Dew Point 40 °F    
Average Humidity 46    
Maximum Humidity 71    
Minimum Humidity 21    
Precipitation  
Precipitation 0.00 in 0.01 in 1.54 in (2014)
Month to date precipitation 0.01 1.08  
Year to date precipitation 7.59 13.22  
Sea Level Pressure  
Sea Level Pressure 29.97 in    
Wind  
Wind Speed 10 mph (NNW)    
Max Wind Speed 21 mph    
Max Gust Speed 24 mph    
T = Trace of Precipitation, MM = Missing Value Source: NWS Daily Summary

Daily Weather History Graph

Daily Weather History Graph

Search for Another Location

Airport or City:

Trip Planner

Search our weather history database for the weather conditions in past years. The results will help you decide how hot, cold, wet, or windy it might be!

Date:

Astronomy

Sep. 30, 2012 Rise Set
Actual Time 6:51 AM MDT 6:35 PM MDT
Civil Twilight 6:22 AM MDT 7:04 PM MDT
Nautical Twilight 5:47 AM MDT 7:39 PM MDT
Astronomical Twilight 5:12 AM MDT 8:14 PM MDT
Moon 6:34 PM MDT (9/30) 7:29 AM MDT (9/30)
Length of Visible Light 12h 42m
Length of Day
11h 43m
Full, 100% of the Moon is Illuminated
Sep 30
Full
Oct 8
Last Quarter
Oct 15
New
Oct 21
First Quarter
Oct 29
Full

Hourly Weather History & Observations

Time (MDT) Temp. Dew Point Humidity Pressure Visibility Wind Dir Wind Speed Gust Speed Precip Events Conditions
12:56 AM 62.1 °F 37.9 °F 41% 29.88 in - North 12.7 mph - N/A   Unknown
1:56 AM 57.0 °F 37.9 °F 49% 29.90 in - WNW 5.8 mph - N/A   Unknown
2:56 AM 54.0 °F 37.9 °F 55% 29.90 in - NW 6.9 mph - N/A   Unknown
3:56 AM 55.9 °F 37.0 °F 49% 29.90 in - NW 4.6 mph - N/A   Unknown
4:56 AM 53.1 °F 37.0 °F 55% 29.92 in - West 5.8 mph - N/A   Unknown
5:56 AM 52.0 °F 37.9 °F 59% 29.93 in - WNW 6.9 mph - N/A   Unknown
6:56 AM 54.0 °F 37.9 °F 55% 29.95 in - West 6.9 mph - N/A   Unknown
7:56 AM 60.1 °F 37.9 °F 44% 29.96 in - East 3.5 mph - N/A   Unknown
8:56 AM 61.0 °F 39.9 °F 46% 29.97 in - NW 6.9 mph - N/A   Unknown
9:56 AM 69.1 °F 39.0 °F 33% 29.96 in - NNW 10.4 mph - N/A   Unknown
10:56 AM 73.9 °F 39.9 °F 29% 29.95 in - NNW 4.6 mph - N/A   Unknown
11:56 AM 75.9 °F 39.9 °F 27% 29.95 in - WNW 10.4 mph - N/A   Unknown
12:56 PM 77.0 °F 37.9 °F 24% 29.93 in - NW 6.9 mph - N/A   Unknown
1:56 PM 80.1 °F 37.9 °F 22% 29.91 in - WNW 11.5 mph - N/A   Unknown
2:56 PM 75.9 °F 39.0 °F 26% 29.93 in - NW 5.8 mph - N/A   Unknown
3:56 PM 75.9 °F 39.0 °F 26% 29.92 in - NNE 16.1 mph - N/A   Unknown
4:56 PM 73.0 °F 42.1 °F 33% 29.95 in - NNE 12.7 mph - N/A   Unknown
5:56 PM 69.1 °F 43.0 °F 39% 29.96 in - ENE 6.9 mph - N/A   Unknown
6:56 PM 64.9 °F 44.1 °F 47% 29.99 in - NNE 8.1 mph - N/A   Unknown
7:56 PM 61.0 °F 48.0 °F 62% 30.03 in - NNE 17.3 mph 26.5 mph N/A   Unknown
8:56 PM 57.9 °F 46.9 °F 67% 30.07 in - NNE 13.8 mph - N/A   Unknown
9:56 PM 55.9 °F 44.1 °F 64% 30.09 in - NE 13.8 mph - N/A   Unknown
10:56 PM 53.1 °F 44.1 °F 71% 30.13 in - North 13.8 mph - N/A   Unknown
11:56 PM 53.1 °F 43.0 °F 69% 30.13 in - North 18.4 mph - N/A   Unknown